This is the latest recevied weather packets stored in our database for station/object KB1WCR. If no packets are shown the sender has not sent any weather packets the latest 10 day(s).
| Time | Temp. | Humidity | Pressure | Rain* | Wind** | Luminosity | Snow |
|---|---|---|---|---|---|---|---|
| 1788350603 | 16.67° C | 99% | 1023 hPa | 0 mm | - | 79 W/m² | - |
| 1788350297 | 16.67° C | 99% | 1023 hPa | 0 mm | - | 62 W/m² | - |
| 1788349994 | 16.67° C | 99% | 1023.2 hPa | 0 mm | - | 62 W/m² | - |
| 1788349690 | 16.11° C | 99% | 1022.9 hPa | 0 mm | - | 65 W/m² | - |
| 1788349385 | 16.11° C | 99% | 1023 hPa | 0 mm | - | 64 W/m² | - |
| 1788349080 | 16.11° C | 99% | 1023 hPa | 0 mm | - | 59 W/m² | - |
| 1788348775 | 16.11° C | 99% | 1023.2 hPa | 0 mm | - | 46 W/m² | - |
| 1788348474 | 16.11° C | 99% | 1022.9 hPa | 0 mm | - | 47 W/m² | - |
| 1788348172 | 16.11° C | 99% | 1022.9 hPa | 0 mm | - | 40 W/m² | - |
| 1788347866 | 16.11° C | 99% | 1022.8 hPa | 0 mm | - | 35 W/m² | - |
| 1788347567 | 16.11° C | 99% | 1022.7 hPa | 0 mm | - | 33 W/m² | - |
| 1788347258 | 16.11° C | 99% | 1022.9 hPa | 0 mm | - | 20 W/m² | - |
| 1788346954 | 16.11° C | 99% | 1022.5 hPa | 0 mm | - | 13 W/m² | - |
| 1788346654 | 16.11° C | 99% | 1022.7 hPa | 0 mm | - | 9 W/m² | - |
| 1788346349 | 16.11° C | 99% | 1022.6 hPa | 0 mm | - | 8 W/m² | - |
| 1788346044 | 16.11° C | 99% | 1022.5 hPa | 0 mm | - | 10 W/m² | - |
| 1788345741 | 16.11° C | 99% | 1022.3 hPa | 0 mm | - | 13 W/m² | - |
| 1788345440 | 16.11° C | 99% | 1022.3 hPa | 0 mm | - | 8 W/m² | - |
| 1788345134 | 16.11° C | 99% | 1022.2 hPa | 0 mm | - | 5 W/m² | - |
| 1788344830 | 16.11° C | 99% | 1022.5 hPa | 0 mm | - | 4 W/m² | - |
| 1788344528 | 16.11° C | 99% | 1022.4 hPa | 0 mm | - | 3 W/m² | - |
| 1788344228 | 16.11° C | 99% | 1022.3 hPa | 0 mm | - | 2 W/m² | - |
| 1788343922 | 16.11° C | 99% | 1022.3 hPa | 0 mm | - | 2 W/m² | - |
| 1788343616 | 16.11° C | 99% | 1022.2 hPa | 0 mm | - | 1 W/m² | - |
| 1788343311 | 16.11° C | 99% | 1022.2 hPa | 0 mm | - | 1 W/m² | - |
* Rain latest hour (hover to see other rain measurements)
** Current wind speed in m/s (hover to see current wind gust speed)